Terug naar catalogus

CZ-6A DEB

ActiefPO
NORAD 55532·DEBRIS·🇨🇳 China

Gelanceerd Nov 11, 2022 vanaf Taiyuan Satellite Launch Center

Loading…

Volgende Passages (komende 24 uur)

TLE

VersSource: Space-Track

Epoch: Sep 13, 2026, 18:26 UTC

1 55532U 22151YE  26256.76852154  .00027293  00000-0  21695-2 0  9998
2 55532  98.6339 344.2459 0035367 318.6263  41.2280 14.99914230198966

Volg CZ-6A DEB in realtime met AllMySat

Download on the App Store